EWG46K EGKK-EDDK

Flight info

Callsign EWG46K
Flight time 0h 50m
Altitude 23000
Route DVR L9 KONAN/N0418F330 UL607 SPI/N0359F230 T857 DENOV T861 ERUKI ERUKI1F
Aircraft A320/M-SDE3FGHIRWY/LB1

Departure

Time 2026-05-07 21:59
Airport London Gatwick Airport (EGKK)

Arrival

Time 2026-05-07 22:50
Airport Cologne Bonn Airport (EDDK)
Time Latitude Longitude Altitude Speed Heading
2026-05-07 21:14 51.15911 -0.16840 205 ft 0 kts 190°
2026-05-07 21:44 51.15919 -0.16837 205 ft 4 kts 192°
2026-05-07 21:45 51.15945 -0.16825 217 ft 4 kts 205°
2026-05-07 21:45 51.15966 -0.16803 214 ft 4 kts 236°
2026-05-07 21:45 51.15972 -0.16775 214 ft 1 kts 282°
2026-05-07 21:45 51.15971 -0.16768 213 ft 0 kts 282°
2026-05-07 21:49 51.15972 -0.16775 214 ft 5 kts 282°
2026-05-07 21:49 51.15979 -0.16880 205 ft 10 kts 256°
2026-05-07 21:49 51.15956 -0.16972 212 ft 8 kts 238°
2026-05-07 21:50 51.15920 -0.17036 211 ft 9 kts 219°
2026-05-07 21:50 51.15843 -0.17088 211 ft 13 kts 192°
2026-05-07 21:50 51.15805 -0.17192 215 ft 11 kts 257°
2026-05-07 21:50 51.15792 -0.17301 210 ft 9 kts 260°
2026-05-07 21:51 51.15779 -0.17396 205 ft 8 kts 255°
2026-05-07 21:51 51.15766 -0.17477 209 ft 7 kts 256°
2026-05-07 21:51 51.15756 -0.17549 209 ft 8 kts 258°
2026-05-07 21:51 51.15735 -0.17702 205 ft 16 kts 258°
2026-05-07 21:52 51.15713 -0.17868 205 ft 14 kts 257°
2026-05-07 21:52 51.15693 -0.18015 209 ft 13 kts 258°
2026-05-07 21:52 51.15675 -0.18144 213 ft 11 kts 257°
2026-05-07 21:52 51.15641 -0.18235 211 ft 9 kts 197°
2026-05-07 21:53 51.15583 -0.18226 209 ft 8 kts 169°
2026-05-07 21:53 51.15524 -0.18207 205 ft 10 kts 166°
2026-05-07 21:53 51.15442 -0.18168 208 ft 14 kts 165°
2026-05-07 21:53 51.15346 -0.18134 208 ft 15 kts 168°
2026-05-07 21:54 51.15259 -0.18103 205 ft 10 kts 167°
2026-05-07 21:54 51.15208 -0.18134 211 ft 7 kts 238°
2026-05-07 21:54 51.15195 -0.18223 209 ft 10 kts 258°
2026-05-07 21:54 51.15184 -0.18341 208 ft 12 kts 261°
2026-05-07 21:55 51.15169 -0.18460 211 ft 10 kts 257°
2026-05-07 21:55 51.15154 -0.18566 209 ft 9 kts 258°
2026-05-07 21:55 51.15142 -0.18660 207 ft 9 kts 258°
2026-05-07 21:55 51.15118 -0.18833 208 ft 25 kts 255°
2026-05-07 21:56 51.15078 -0.19121 205 ft 27 kts 258°
2026-05-07 21:56 51.15038 -0.19415 209 ft 27 kts 257°
2026-05-07 21:56 51.14997 -0.19707 211 ft 27 kts 257°
2026-05-07 21:56 51.14955 -0.20009 215 ft 27 kts 258°
2026-05-07 21:57 51.14918 -0.20279 205 ft 25 kts 257°
2026-05-07 21:57 51.14882 -0.20530 211 ft 18 kts 257°
2026-05-07 21:57 51.14832 -0.20651 208 ft 13 kts 208°
2026-05-07 21:57 51.14758 -0.20714 208 ft 11 kts 208°
2026-05-07 21:58 51.14697 -0.20719 214 ft 7 kts 170°
2026-05-07 21:58 51.14658 -0.20708 207 ft 4 kts 169°
2026-05-07 21:58 51.14634 -0.20698 212 ft 9 kts 165°
2026-05-07 21:58 51.14598 -0.20613 214 ft 13 kts 82°
2026-05-07 21:59 51.14653 -0.20205 214 ft 73 kts 77°
2026-05-07 21:59 51.14810 -0.19070 212 ft 134 kts 77°
2026-05-07 21:59 51.15035 -0.17443 545 ft 153 kts 78°
2026-05-07 21:59 51.15254 -0.15787 1320 ft 153 kts 80°
2026-05-07 22:00 51.15487 -0.14049 1808 ft 171 kts 81°
2026-05-07 22:00 51.15739 -0.12051 2223 ft 200 kts 80°
2026-05-07 22:00 51.16048 -0.09690 2520 ft 238 kts 79°
2026-05-07 22:00 51.16411 -0.06947 2840 ft 266 kts 79°
2026-05-07 22:01 51.16816 -0.03857 3113 ft 300 kts 79°
2026-05-07 22:01 51.17226 -0.00734 3358 ft 273 kts 79°
2026-05-07 22:01 51.17597 0.02065 3485 ft 244 kts 79°
2026-05-07 22:01 51.17926 0.04552 3720 ft 215 kts 78°
2026-05-07 22:02 51.18216 0.06742 3954 ft 205 kts 79°
2026-05-07 22:02 51.18313 0.09223 4222 ft 243 kts 95°
2026-05-07 22:02 51.18141 0.12005 4472 ft 257 kts 96°
2026-05-07 22:02 51.17967 0.14863 4719 ft 261 kts 96°
2026-05-07 22:03 51.17792 0.17746 4958 ft 262 kts 96°
2026-05-07 22:03 51.17614 0.20645 5198 ft 263 kts 96°
2026-05-07 22:03 51.17435 0.23565 5441 ft 266 kts 96°
2026-05-07 22:03 51.17311 0.26528 6005 ft 270 kts 92°
2026-05-07 22:04 51.17257 0.29551 6866 ft 276 kts 91°
2026-05-07 22:04 51.17228 0.32639 7717 ft 281 kts 90°
2026-05-07 22:04 51.17197 0.35779 8564 ft 286 kts 91°
2026-05-07 22:04 51.17149 0.38983 9400 ft 292 kts 91°
2026-05-07 22:05 51.17093 0.42257 10101 ft 303 kts 92°
2026-05-07 22:05 51.17030 0.45741 10393 ft 326 kts 92°
2026-05-07 22:05 51.16963 0.49427 10958 ft 337 kts 92°
2026-05-07 22:05 51.16895 0.53176 11733 ft 341 kts 93°
2026-05-07 22:06 51.16824 0.56975 12517 ft 345 kts 93°
2026-05-07 22:06 51.16748 0.60814 13307 ft 349 kts 94°
2026-05-07 22:06 51.16667 0.64696 14041 ft 352 kts 94°
2026-05-07 22:06 51.16584 0.68621 14716 ft 356 kts 94°
2026-05-07 22:07 51.16499 0.72587 15383 ft 360 kts 94°
2026-05-07 22:07 51.16409 0.76601 16055 ft 364 kts 94°
2026-05-07 22:07 51.16317 0.80654 16722 ft 368 kts 94°
2026-05-07 22:07 51.16224 0.84753 17388 ft 372 kts 94°
2026-05-07 22:08 51.16131 0.88896 18048 ft 376 kts 94°
2026-05-07 22:08 51.16035 0.93030 18646 ft 380 kts 94°
2026-05-07 22:08 51.15937 0.97254 19230 ft 384 kts 93°
2026-05-07 22:08 51.15837 1.01520 19771 ft 387 kts 93°
2026-05-07 22:09 51.15733 1.05819 20330 ft 390 kts 93°
2026-05-07 22:09 51.15627 1.10155 20878 ft 393 kts 93°
2026-05-07 22:09 51.15519 1.14524 21416 ft 396 kts 94°
2026-05-07 22:09 51.15410 1.18928 21941 ft 399 kts 94°
2026-05-07 22:10 51.15299 1.23364 22455 ft 402 kts 94°
2026-05-07 22:10 51.15184 1.27834 22966 ft 406 kts 94°
2026-05-07 22:10 51.15066 1.32339 23477 ft 409 kts 94°
2026-05-07 22:10 51.14945 1.36879 23917 ft 412 kts 94°
2026-05-07 22:11 51.14820 1.41447 24334 ft 414 kts 94°
2026-05-07 22:11 51.14695 1.46044 24732 ft 417 kts 94°
2026-05-07 22:11 51.14569 1.50682 25138 ft 420 kts 94°
2026-05-07 22:11 51.14439 1.55342 25541 ft 422 kts 94°
2026-05-07 22:12 51.14305 1.60025 25938 ft 425 kts 94°
2026-05-07 22:12 51.14169 1.64739 26330 ft 427 kts 94°
2026-05-07 22:12 51.14028 1.69477 26720 ft 430 kts 94°
2026-05-07 22:12 51.13884 1.74243 27110 ft 432 kts 94°
2026-05-07 22:13 51.13740 1.79033 27490 ft 435 kts 94°
2026-05-07 22:13 51.13642 1.82222 27742 ft 436 kts 94°
2026-05-07 22:13 51.13491 1.87059 28114 ft 439 kts 94°
2026-05-07 22:13 51.13336 1.91922 28471 ft 441 kts 94°
2026-05-07 22:14 51.13177 1.96818 28816 ft 444 kts 94°
2026-05-07 22:14 51.12947 2.03358 29280 ft 448 kts 95°
2026-05-07 22:14 51.12794 2.06708 29516 ft 449 kts 96°
2026-05-07 22:14 51.12530 2.11677 29866 ft 452 kts 96°
2026-05-07 22:15 51.12239 2.16670 30196 ft 454 kts 97°
2026-05-07 22:15 51.11940 2.21681 30480 ft 456 kts 97°
2026-05-07 22:15 51.11646 2.26648 30748 ft 458 kts 97°
2026-05-07 22:15 51.11356 2.31711 31016 ft 460 kts 96°
2026-05-07 22:16 51.11069 2.36787 31285 ft 462 kts 96°
2026-05-07 22:16 51.10784 2.41903 31529 ft 464 kts 96°
2026-05-07 22:16 51.10500 2.47032 31862 ft 464 kts 96°
2026-05-07 22:16 51.10215 2.52145 32237 ft 464 kts 96°
2026-05-07 22:17 51.09926 2.57247 32598 ft 463 kts 96°
2026-05-07 22:17 51.09629 2.62352 32973 ft 462 kts 97°
2026-05-07 22:17 51.09074 2.67369 33319 ft 460 kts 106°
2026-05-07 22:17 51.08204 2.72260 33676 ft 459 kts 108°
2026-05-07 22:18 51.07318 2.77144 34043 ft 459 kts 108°
2026-05-07 22:18 51.05549 2.86884 34637 ft 459 kts 108°
2026-05-07 22:18 51.04662 2.91757 34903 ft 459 kts 108°
2026-05-07 22:19 51.03771 2.96629 35168 ft 459 kts 108°
2026-05-07 22:19 51.02875 3.01504 35426 ft 459 kts 108°
2026-05-07 22:19 51.01980 3.06365 35678 ft 459 kts 108°
2026-05-07 22:19 51.01080 3.11231 35926 ft 459 kts 108°
2026-05-07 22:20 51.00180 3.16106 36066 ft 460 kts 108°
2026-05-07 22:20 50.98405 3.25710 36088 ft 454 kts 108°
2026-05-07 22:21 50.96618 3.35320 36089 ft 454 kts 108°
2026-05-07 22:21 50.94820 3.44907 36084 ft 453 kts 108°
2026-05-07 22:22 50.93009 3.54487 36086 ft 453 kts 108°
2026-05-07 22:22 50.91192 3.64054 36091 ft 453 kts 108°
2026-05-07 22:23 50.89365 3.73615 36090 ft 454 kts 108°
2026-05-07 22:23 50.87521 3.83168 36096 ft 454 kts 109°
2026-05-07 22:24 50.85659 3.92710 36095 ft 454 kts 109°
2026-05-07 22:24 50.83798 4.02250 36099 ft 453 kts 109°
2026-05-07 22:25 50.81940 4.11778 36100 ft 453 kts 109°
2026-05-07 22:25 50.80081 4.21234 36091 ft 453 kts 109°
2026-05-07 22:26 50.78199 4.30719 35423 ft 451 kts 109°
2026-05-07 22:26 50.77260 4.35415 34972 ft 447 kts 109°
2026-05-07 22:26 50.76327 4.40074 34526 ft 442 kts 109°
2026-05-07 22:26 50.75401 4.44688 34089 ft 438 kts 109°
2026-05-07 22:27 50.74483 4.49253 33581 ft 434 kts 109°
2026-05-07 22:27 50.73577 4.53779 33087 ft 431 kts 109°
2026-05-07 22:27 50.72679 4.58273 32574 ft 427 kts 109°
2026-05-07 22:27 50.71793 4.62718 32103 ft 424 kts 109°
2026-05-07 22:28 50.70925 4.67145 31622 ft 420 kts 108°
2026-05-07 22:28 50.70075 4.71532 31140 ft 417 kts 108°
2026-05-07 22:28 50.69234 4.75891 30667 ft 414 kts 108°
2026-05-07 22:28 50.68399 4.80213 30216 ft 411 kts 108°
2026-05-07 22:29 50.67567 4.84513 29595 ft 410 kts 108°
2026-05-07 22:29 50.66746 4.88788 29123 ft 405 kts 106°
2026-05-07 22:29 50.66238 4.93135 28700 ft 401 kts 96°
2026-05-07 22:29 50.66126 4.97505 28272 ft 397 kts 92°
2026-05-07 22:30 50.66068 5.01769 27855 ft 392 kts 92°
2026-05-07 22:30 50.66008 5.06046 27431 ft 388 kts 92°
2026-05-07 22:30 50.65946 5.10276 26930 ft 386 kts 92°
2026-05-07 22:30 50.65880 5.14516 26358 ft 387 kts 92°
2026-05-07 22:31 50.65809 5.18746 25878 ft 385 kts 92°
2026-05-07 22:31 50.65738 5.22955 25424 ft 383 kts 92°
2026-05-07 22:31 50.65666 5.27132 24989 ft 380 kts 92°
2026-05-07 22:31 50.65591 5.31279 24558 ft 377 kts 92°
2026-05-07 22:32 50.65516 5.35400 24131 ft 375 kts 92°
2026-05-07 22:32 50.65440 5.39488 23720 ft 372 kts 92°
2026-05-07 22:32 50.65362 5.43551 23242 ft 370 kts 92°
2026-05-07 22:32 50.65286 5.47586 22785 ft 367 kts 92°
2026-05-07 22:33 50.65209 5.51590 22347 ft 364 kts 92°
2026-05-07 22:33 50.65134 5.55566 21922 ft 361 kts 92°
2026-05-07 22:33 50.65059 5.59509 21504 ft 359 kts 92°
2026-05-07 22:33 50.64981 5.63425 21080 ft 356 kts 92°
2026-05-07 22:34 50.64903 5.67258 20677 ft 354 kts 92°
2026-05-07 22:34 50.64820 5.71116 20283 ft 351 kts 92°
2026-05-07 22:34 50.64737 5.74949 19900 ft 349 kts 92°
2026-05-07 22:34 50.64652 5.78757 19515 ft 346 kts 92°
2026-05-07 22:35 50.64575 5.82538 19138 ft 344 kts 91°
2026-05-07 22:35 50.64884 5.86237 18652 ft 339 kts 72°
2026-05-07 22:35 50.65897 5.89553 17945 ft 335 kts 58°
2026-05-07 22:35 50.67123 5.92669 17204 ft 333 kts 58°
2026-05-07 22:36 50.68345 5.95755 16527 ft 330 kts 57°
2026-05-07 22:36 50.69769 5.98546 15875 ft 325 kts 41°
2026-05-07 22:36 50.71429 6.00960 15210 ft 323 kts 43°
2026-05-07 22:36 50.73061 6.03411 14773 ft 323 kts 43°
2026-05-07 22:37 50.74577 6.06007 14459 ft 321 kts 56°
2026-05-07 22:37 50.75652 6.09063 13983 ft 317 kts 63°
2026-05-07 22:37 50.76660 6.12153 13280 ft 316 kts 63°
2026-05-07 22:37 50.77648 6.15225 12643 ft 312 kts 63°
2026-05-07 22:38 50.78611 6.18230 12047 ft 308 kts 63°
2026-05-07 22:38 50.79572 6.21229 11435 ft 304 kts 63°
2026-05-07 22:38 50.80524 6.24188 10844 ft 299 kts 63°
2026-05-07 22:38 50.81465 6.27114 10346 ft 298 kts 63°
2026-05-07 22:39 50.82398 6.30018 10045 ft 294 kts 63°
2026-05-07 22:39 50.83315 6.32879 9739 ft 290 kts 63°
2026-05-07 22:39 50.84222 6.35714 9379 ft 287 kts 63°
2026-05-07 22:39 50.85121 6.38525 9009 ft 285 kts 63°
2026-05-07 22:40 50.86014 6.41319 8629 ft 284 kts 63°
2026-05-07 22:40 50.86899 6.44093 8264 ft 281 kts 63°
2026-05-07 22:40 50.87778 6.46851 7896 ft 279 kts 63°
2026-05-07 22:40 50.88648 6.49590 7531 ft 277 kts 63°
2026-05-07 22:41 50.89513 6.52312 7170 ft 275 kts 63°
2026-05-07 22:41 50.90370 6.55014 6807 ft 274 kts 63°
2026-05-07 22:41 50.91222 6.57701 6466 ft 272 kts 63°
2026-05-07 22:41 50.92067 6.60363 6077 ft 270 kts 63°
2026-05-07 22:42 50.92896 6.62972 5689 ft 268 kts 63°
2026-05-07 22:42 50.93739 6.65634 5288 ft 266 kts 63°
2026-05-07 22:42 50.94553 6.68207 4904 ft 264 kts 63°
2026-05-07 22:42 50.95369 6.70799 4541 ft 261 kts 63°
2026-05-07 22:43 50.96174 6.73362 4279 ft 257 kts 63°
2026-05-07 22:43 50.96961 6.75862 4019 ft 249 kts 63°
2026-05-07 22:43 50.97728 6.78291 3761 ft 243 kts 63°
2026-05-07 22:43 50.98541 6.80599 3507 ft 237 kts 54°
2026-05-07 22:44 50.99535 6.82635 3327 ft 228 kts 52°
2026-05-07 22:44 51.00486 6.84580 3223 ft 219 kts 52°
2026-05-07 22:44 51.01383 6.86474 3124 ft 210 kts 53°
2026-05-07 22:44 51.02056 6.88465 3021 ft 202 kts 75°
2026-05-07 22:45 51.02163 6.90631 3010 ft 196 kts 98°
2026-05-07 22:45 51.01729 6.92658 3008 ft 194 kts 121°
2026-05-07 22:45 51.00844 6.94264 3014 ft 194 kts 137°
2026-05-07 22:45 50.99860 6.95696 3009 ft 194 kts 137°
2026-05-07 22:46 50.98866 6.97148 3011 ft 194 kts 137°
2026-05-07 22:46 50.97869 6.98605 2863 ft 194 kts 137°
2026-05-07 22:46 50.96874 7.00057 2635 ft 195 kts 137°
2026-05-07 22:46 50.95881 7.01505 2404 ft 193 kts 137°
2026-05-07 22:47 50.94923 7.02902 2130 ft 181 kts 137°
2026-05-07 22:47 50.94032 7.04197 1923 ft 163 kts 137°
2026-05-07 22:47 50.93234 7.05349 1669 ft 148 kts 136°
2026-05-07 22:47 50.92508 7.06420 1460 ft 138 kts 137°
2026-05-07 22:48 50.91805 7.07443 1264 ft 137 kts 137°
2026-05-07 22:48 50.91112 7.08450 1070 ft 134 kts 136°
2026-05-07 22:48 50.90425 7.09442 899 ft 133 kts 136°
2026-05-07 22:48 50.89739 7.10434 718 ft 135 kts 135°
2026-05-07 22:49 50.89048 7.11445 561 ft 135 kts 135°
2026-05-07 22:49 50.88354 7.12452 381 ft 136 kts 135°
2026-05-07 22:49 50.87664 7.13452 241 ft 127 kts 136°
2026-05-07 22:49 50.87136 7.14229 250 ft 79 kts 137°
2026-05-07 22:50 50.86906 7.14552 260 ft 13 kts 158°
2026-05-07 22:50 50.86872 7.14472 261 ft 9 kts 265°
2026-05-07 22:50 50.86879 7.14373 259 ft 9 kts 282°
2026-05-07 22:50 50.86894 7.14262 256 ft 11 kts 282°
2026-05-07 22:51 50.86910 7.14138 255 ft 11 kts 282°
2026-05-07 22:51 50.86920 7.14016 253 ft 12 kts 277°
2026-05-07 22:51 50.86953 7.13880 247 ft 15 kts 310°
2026-05-07 22:51 50.87044 7.13748 242 ft 20 kts 318°
2026-05-07 22:52 50.87158 7.13586 238 ft 24 kts 317°
2026-05-07 22:52 50.87285 7.13399 233 ft 28 kts 316°
2026-05-07 22:52 50.87428 7.13193 232 ft 25 kts 318°
2026-05-07 22:52 50.87550 7.13016 232 ft 24 kts 316°
2026-05-07 22:53 50.87652 7.12868 232 ft 15 kts 317°
2026-05-07 22:53 50.87729 7.12757 232 ft 15 kts 317°
2026-05-07 22:53 50.87787 7.12672 232 ft 10 kts 317°
2026-05-07 22:53 50.87842 7.12615 232 ft 9 kts 345°
2026-05-07 22:54 50.87898 7.12615 232 ft 7 kts
2026-05-07 22:54 50.87942 7.12578 234 ft 9 kts 317°
2026-05-07 22:54 50.87994 7.12506 232 ft 10 kts 318°
2026-05-07 22:54 50.88044 7.12426 232 ft 11 kts 304°
2026-05-07 22:55 50.88046 7.12321 232 ft 7 kts 267°
2026-05-07 22:55 50.88045 7.12272 232 ft 3 kts 268°
2026-05-07 22:55 50.88045 7.12265 232 ft 0 kts 267°